Location: Carrières
(48.9495°N, 2.0407°E)
Time: 00:20:38
(UTC+00:00)

Cosmos 1140 Rocket - Pass Details

Date: 28 January 2023
Orbit: 744 x 766 km, 74.1° (Epoch: 21 March)

Event Time Altitude Azimuth Distance (km) Brightness Sun altitude
Rises 18:04:41 0° 186° (S) 3,203 7.0 -13.6°
Reaches altitude 10° 18:07:06 10° 181° (S) 2,279 6.1 -13.9°
Maximum altitude 18:12:05 52° 106° (ESE) 938 3.6 -14.7°
Enters shadow 18:16:37 13° 33° (NNE) 2,104 5.4 -15.5°
